Monte Cimone, Italy

12:32 AM CEST on March 27, 2017 (GMT +0200)
Monte Cimone

Weather History for LIVC - October, 2013

Change the Weather History Date:

Thursday, October 31, 2013

  Actual Average Record
Temperature  
Mean Temperature 42 °F -  
Max Temperature 44 °F 35 °F 51 °F (2005)
Min Temperature 39 °F 27 °F 21 °F (1997)
Degree Days  
Heating Degree Days 24    
Moisture  
Dew Point 37 °F    
Average Humidity 85    
Maximum Humidity 93    
Minimum Humidity 66    
Precipitation  
Precipitation 0.00 in 0.10 in - ()
Sea Level Pressure  
Sea Level Pressure 30.27 in    
Wind  
Wind Speed 14 mph ()    
Max Wind Speed 29 mph    
Max Gust Speed -    
Visibility 3.3 miles    
Events Fog    
Averages and records for this station are not official NWS values.
T = Trace of Precipitation, MM = Missing Value Source: Averaged Metar Reports

Daily Weather History Graph

Daily Weather History Graph

Search for Another Location

Airport or City:

Trip Planner

Search our weather history database for the weather conditions in past years. The results will help you decide how hot, cold, wet, or windy it might be!

Date:

Astronomy

Oct. 31, 2013 Rise Set
Actual Time 6:52 AM CET 5:08 PM CET
Civil Twilight 6:22 AM CET 5:38 PM CET
Nautical Twilight 5:48 AM CET 6:12 PM CET
Astronomical Twilight 5:14 AM CET 6:46 PM CET
Moon 3:18 AM CET (10/31) 3:22 PM CET (10/31)
Length of Visible Light 11h 15m
Length of Day
10h 15m
Waning Crescent, 11% of the Moon is Illuminated
Oct 31
Waning Crescent
Nov 3
New
Nov 10
First Quarter
Nov 17
Full
Nov 25
Last Quarter

Hourly Weather History & Observations

Time (CET) Temp. Windchill Dew Point Humidity Pressure Visibility Wind Dir Wind Speed Gust Speed Precip Events Conditions
12:55 AM 41.0 °F 32.5 °F 39.2 °F 93% 30.24 in 0.0 mi ENE 17.3 mph - N/A Fog Fog
1:55 AM 41.0 °F 32.8 °F 39.2 °F 93% 30.24 in 0.0 mi NE 16.1 mph - N/A Fog Fog
2:55 AM 41.0 °F 33.1 °F 37.4 °F 87% 30.24 in 0.0 mi NE 15.0 mph - N/A Fog Fog
3:55 AM 39.2 °F 29.8 °F 37.4 °F 93% 30.24 in 0.0 mi NNE 18.4 mph - N/A Fog Fog
4:55 AM 39.2 °F 30.5 °F 37.4 °F 93% 30.24 in 0.0 mi NE 16.1 mph - N/A Fog Fog
5:55 AM 39.2 °F 29.8 °F 37.4 °F 93% 30.24 in 0.0 mi NE 18.4 mph - N/A Fog Fog
6:55 AM 39.2 °F 29.6 °F 37.4 °F 93% 30.24 in 0.0 mi NE 19.6 mph - N/A Fog Fog
7:00 AM 39 °F - 36 °F 87%  in 0 mi NE 19.6 mph - - Fog Heavy Fog
7:55 AM 39.2 °F 27.8 °F 37.4 °F 93% 30.24 in 0.0 mi NE 27.6 mph - N/A Fog Fog
8:55 AM 39.2 °F 27.6 °F 37.4 °F 93% 30.27 in 0.0 mi NE 28.8 mph - N/A Fog Fog
9:55 AM 39.2 °F 29.0 °F 37.4 °F 93% 30.30 in - NE 21.9 mph - N/A   Clear
10:55 AM 41.0 °F 32.2 °F 37.4 °F 87% 30.30 in 6.2 mi NE 18.4 mph - N/A   Partly Cloudy
11:55 AM 41.0 °F 32.8 °F 37.4 °F 87% 30.30 in 6.2 mi NE 16.1 mph - N/A   Partly Cloudy
12:55 PM 42.8 °F 34.8 °F 37.4 °F 81% 30.30 in 6.2 mi NE 17.3 mph - N/A   Partly Cloudy
1:00 PM 42 °F - 38 °F 82%  in 6 mi NE 17.3 mph - -   Partly Cloudy
1:55 PM 44.6 °F 40.7 °F 37.4 °F 76% 30.27 in 6.2 mi NE 6.9 mph - N/A   Partly Cloudy
2:55 PM 42.8 °F 37.0 °F 35.6 °F 76% 30.27 in 6.2 mi ESE 10.4 mph - N/A   Partly Cloudy
3:55 PM 41.0 °F 35.2 °F 35.6 °F 81% 30.27 in - ESE 9.2 mph - N/A   Clear
4:55 PM 41.0 °F 35.2 °F 35.6 °F 81% 30.27 in - East 9.2 mph - N/A   Clear
5:55 PM 41.0 °F 35.2 °F 35.6 °F 81% 30.30 in - East 9.2 mph - N/A   Clear
6:55 PM 39.2 °F 33.6 °F 35.6 °F 87% 30.30 in - East 8.1 mph - N/A   Clear
7:00 PM 40 °F - 36 °F 80%  in 19 mi East 8.1 mph - -   Partly Cloudy
7:55 PM 39.2 °F 31.2 °F 35.6 °F 87% 30.30 in - ESE 13.8 mph - N/A   Clear
8:55 PM 41.0 °F 33.9 °F 35.6 °F 81% 30.30 in - ESE 12.7 mph - N/A   Clear
9:55 PM 42.8 °F 37.0 °F 32.0 °F 66% 30.30 in - ESE 10.4 mph - N/A   Clear
10:55 PM 42.8 °F 37.5 °F 33.8 °F 70% 30.30 in - ESE 9.2 mph - N/A   Clear
11:55 PM 42.8 °F 38.6 °F 33.8 °F 70% 30.30 in - ESE 6.9 mph - N/A   Clear